Weather History for Elefsis, Greece

Change the Weather History Date:

Monday, July 15, 2013

  Actual Average Record
Temperature  
Mean Temperature 82 °F -  
Max Temperature 91 °F 90 °F 107 °F (2008)
Min Temperature 73 °F 72 °F 66 °F (2000)
Cooling Degree Days 17    
Growing Degree Days 32 (Base 50)    
Moisture  
Dew Point 52 °F    
Average Humidity 34    
Maximum Humidity 47    
Minimum Humidity 24    
Precipitation  
Precipitation 0.00 in - - ()
Sea Level Pressure  
Sea Level Pressure 29.88 in    
Wind  
Wind Speed 4 mph ()    
Max Wind Speed 12 mph    
Max Gust Speed 23 mph    
Visibility 6.2 miles    
Events      
Averages and records for this station are not official NWS values.
T = Trace of Precipitation, MM = Missing Value Source: Averaged Metar Reports

Daily Weather History Graph

Daily Weather History Graph

Search for Another Location

Airport:

Trip Planner

Search our weather history database for the weather conditions in past years. The results will help you decide how hot, cold, wet, or windy it might be!

Date:

Astronomy

Jul. 15, 2013 Rise Set
Actual Time 6:15 AM EEST 8:48 PM EEST
Civil Twilight 5:44 AM EEST 9:18 PM EEST
Nautical Twilight 5:06 AM EEST 9:56 PM EEST
Astronomical Twilight 4:23 AM EEST 10:38 PM EEST
Moon 1:07 PM EEST (7/15) No Moon Set
Length of Visible Light 15h 34m
Length of Day
14h 33m
Waxing Crescent, 42% of the Moon is Illuminated
Jul 15
Waxing Crescent
Jul 16
First Quarter
Jul 22
Full
Jul 29
Last Quarter
Aug 7
New

Hourly Weather History & Observations

Time (EEST) Temp. Heat Index Dew Point Humidity Pressure Visibility Wind Dir Wind Speed Gust Speed Precip Events Conditions
12:50 AM 78.8 °F - 48.2 °F 34% 29.89 in - Calm Calm - N/A   Clear
1:50 AM 75.2 °F - 50.0 °F 41% 29.89 in - Calm Calm - N/A   Clear
2:50 AM 75.2 °F - 50.0 °F 41% 29.89 in - Calm Calm - N/A   Clear
3:50 AM 75.2 °F - 50.0 °F 41% 29.89 in - Calm Calm - N/A   Clear
4:50 AM 75.2 °F - 50.0 °F 41% 29.89 in - Calm Calm - N/A   Clear
5:50 AM 75.2 °F - 51.8 °F 44% 29.89 in - Calm Calm - N/A   Clear
6:20 AM 73.4 °F - 51.8 °F 47% 29.89 in - Calm Calm - N/A   Clear
6:50 AM 75.2 °F - 53.6 °F 47% 29.89 in - NNW 4.6 mph - N/A   Clear
7:20 AM 77.0 °F - 55.4 °F 47% 29.89 in - NNW 4.6 mph - N/A   Clear
7:50 AM 78.8 °F - 55.4 °F 44% 29.92 in - North 4.6 mph - N/A   Clear
8:50 AM 82.4 °F 82.0 °F 57.2 °F 42% 29.92 in - North 4.6 mph - N/A   Clear
9:50 AM 84.2 °F 83.0 °F 55.4 °F 37% 29.92 in - North 10.4 mph - N/A   Clear
10:20 AM 84.2 °F 83.0 °F 55.4 °F 37% 29.92 in - North 9.2 mph - N/A   Clear
10:50 AM 86.0 °F 84.2 °F 53.6 °F 33% 29.89 in 6.2 mi North 9.2 mph - N/A   Partly Cloudy
11:20 AM 87.8 °F 85.7 °F 53.6 °F 31% 29.89 in 6.2 mi North 11.5 mph - N/A   Partly Cloudy
11:50 AM 87.8 °F 85.7 °F 53.6 °F 31% 29.89 in 6.2 mi North 8.1 mph - N/A   Partly Cloudy
12:20 PM 87.8 °F 85.7 °F 53.6 °F 31% 29.89 in 6.2 mi North 8.1 mph - N/A   Partly Cloudy
12:50 PM 89.6 °F 87.3 °F 53.6 °F 29% 29.89 in 6.2 mi North 9.2 mph - N/A   Partly Cloudy
1:20 PM 89.6 °F 87.3 °F 53.6 °F 29% 29.89 in 6.2 mi North 9.2 mph - N/A   Scattered Clouds
1:50 PM 89.6 °F - 51.8 °F 27% 29.89 in 6.2 mi NNW 8.1 mph - N/A   Scattered Clouds
2:20 PM 91.4 °F - 51.8 °F 26% 29.86 in 6.2 mi NNW 9.2 mph - N/A   Scattered Clouds
2:50 PM 91.4 °F - 51.8 °F 26% 29.86 in 6.2 mi North 9.2 mph - N/A   Scattered Clouds
3:20 PM 91.4 °F - 50.0 °F 24% 29.86 in 6.2 mi North 10.4 mph - N/A   Partly Cloudy
3:50 PM 91.4 °F - 50.0 °F 24% 29.86 in 6.2 mi NNE 11.5 mph - N/A   Partly Cloudy
4:20 PM 91.4 °F - 50.0 °F 24% 29.86 in 6.2 mi NNE 10.4 mph - N/A   Partly Cloudy
4:50 PM 91.4 °F - 50.0 °F 24% 29.83 in 6.2 mi NNE 11.5 mph 23.0 mph N/A   Partly Cloudy
5:20 PM 91.4 °F - 50.0 °F 24% 29.83 in 6.2 mi North 11.5 mph - N/A   Partly Cloudy
5:50 PM 91.4 °F - 50.0 °F 24% 29.83 in 6.2 mi North 11.5 mph - N/A   Partly Cloudy
6:20 PM 91.4 °F - 50.0 °F 24% 29.83 in 6.2 mi North 10.4 mph - N/A   Partly Cloudy
6:50 PM 89.6 °F - 50.0 °F 26% 29.83 in 6.2 mi North 8.1 mph - N/A   Partly Cloudy
7:20 PM 87.8 °F - 50.0 °F 27% 29.86 in 6.2 mi North 5.8 mph - N/A   Partly Cloudy
7:50 PM 87.8 °F - 48.2 °F 25% 29.86 in 6.2 mi Calm Calm - N/A   Partly Cloudy
8:20 PM 86.0 °F - 50.0 °F 29% 29.86 in 6.2 mi North 4.6 mph - N/A   Partly Cloudy
8:50 PM 84.2 °F - 51.8 °F 33% 29.86 in 6.2 mi Calm Calm - N/A   Partly Cloudy
9:50 PM 82.4 °F - 51.8 °F 35% 29.89 in 6.2 mi Calm Calm - N/A   Partly Cloudy
10:20 PM 82.4 °F 81.4 °F 53.6 °F 37% 29.89 in 6.2 mi Calm Calm - N/A   Scattered Clouds
10:50 PM 80.6 °F 80.5 °F 55.4 °F 42% 29.89 in 6.2 mi Calm Calm - N/A   Scattered Clouds
11:20 PM 78.8 °F - 57.2 °F 47% 29.89 in 6.2 mi Calm Calm - N/A   Partly Cloudy
11:50 PM 78.8 °F - 55.4 °F 44% 29.89 in 6.2 mi Calm Calm - N/A   Partly Cloudy